Voltar ao catálogo

FENGYUN 1C DEB

LostPO
NORAD 38504·DEBRIS·🇨🇳 China

Lançado May 10, 1999 de Taiyuan Satellite Launch Center

Loading…

Próximas Passagens (próximas 24 horas)

TLE

ObsoletoSource: Space-Track

Época: May 3, 2024, 17:03 UTC

1 38504U 99025ESP 24124.71049816  .00010778  00000-0  50218-2 0  9995
2 38504  98.0106  88.5334 0188661 347.3296  12.3171 14.11669281765654

Acompanhe FENGYUN 1C DEB em tempo real com AllMySat

Download on the App Store